This is the latest recevied weather packets stored in our database for station/object KC1ELF. If no packets are shown the sender has not sent any weather packets the latest 1 day(s).
| Time | Temp. | Humidity | Pressure | Rain* | Wind** | Luminosity | Snow |
|---|---|---|---|---|---|---|---|
| 1777999295 | 27.22° C | 46% | 1007.3 hPa | 0 mm | 2.24 m/s, 260° | - | - |
| 1777998695 | 26.67° C | 46% | 1007.7 hPa | 0 mm | 2.24 m/s, 311° | - | - |
| 1777998096 | 26.11° C | 47% | 1007.8 hPa | 0 mm | 2.24 m/s, 196° | - | - |
| 1777997495 | 25.56° C | 47% | 1008.1 hPa | 0 mm | 1.34 m/s, 144° | - | - |
| 1777996895 | 25.56° C | 49% | 1008.2 hPa | 0 mm | 1.79 m/s, 262° | - | - |
| 1777996295 | 25° C | 49% | 1008.4 hPa | 0 mm | 1.34 m/s, 238° | - | - |
| 1777995695 | 24.44° C | 50% | 1008.5 hPa | 0 mm | 2.24 m/s, 279° | - | - |
| 1777995095 | 24.44° C | 50% | 1008.5 hPa | 0 mm | 1.79 m/s, 145° | - | - |
| 1777994495 | 23.89° C | 52% | 1008.5 hPa | 0 mm | 1.79 m/s, 260° | - | - |
| 1777993896 | 23.33° C | 52% | 1008.5 hPa | 0 mm | 1.79 m/s, 204° | - | - |
| 1777993295 | 22.78° C | 52% | 1008.8 hPa | 0 mm | 2.24 m/s, 334° | - | - |
| 1777992695 | 22.22° C | 55% | 1009 hPa | 0 mm | 2.68 m/s, 269° | - | - |
| 1777992096 | 21.67° C | 56% | 1009.1 hPa | 0 mm | 2.68 m/s, 275° | - | - |
| 1777991496 | 21.67° C | 57% | 1009 hPa | 0 mm | 2.24 m/s, 288° | - | - |
| 1777990896 | 21.11° C | 59% | 1008.8 hPa | 0 mm | 1.34 m/s, 248° | - | - |
| 1777990296 | 20° C | 62% | 1008.8 hPa | 0 mm | 1.34 m/s, 348° | - | - |
| 1777989695 | 19.44° C | 61% | 1008.9 hPa | 0 mm | 1.79 m/s, 303° | - | - |
| 1777989095 | 19.44° C | 62% | 1008.9 hPa | 0 mm | 1.79 m/s, 327° | - | - |
| 1777988495 | 18.33° C | 64% | 1008.9 hPa | 0 mm | 1.34 m/s, 254° | - | - |
| 1777987895 | 17.22° C | 66% | 1008.9 hPa | 0 mm | 0.89 m/s, 274° | - | - |
| 1777987296 | 17.22° C | 64% | 1009.1 hPa | 0 mm | 0.89 m/s, 286° | - | - |
| 1777986696 | 17.78° C | 65% | 1009.1 hPa | 0 mm | 1.34 m/s, 329° | - | - |
| 1777986096 | 16.67° C | 67% | 1008.9 hPa | 0 mm | 1.34 m/s, 291° | - | - |
| 1777985496 | 16.11° C | 68% | 1008.9 hPa | 0 mm | 1.34 m/s, 251° | - | - |
| 1777984896 | 16.11° C | 68% | 1009.1 hPa | 0 mm | 1.34 m/s, 253° | - | - |
* Rain latest hour (hover to see other rain measurements)
** Current wind speed in m/s (hover to see current wind gust speed)